﻿Дата;Google;AdRiver
2014-04-04;0;1
2014-04-03;1;0
2013-12-28;1;0
2013-12-27;4;0
2013-12-25;1;0
2013-12-24;1;0
2013-12-23;3;0
2013-12-20;1;0
2013-12-19;1;0
2013-12-18;1;0
2013-12-16;2;0
2013-12-14;1;0
2013-12-13;1;0
2013-12-12;1;0
2013-12-11;1;0
2013-12-10;2;0
2013-12-02;2;0
2013-11-30;2;0
2013-11-28;2;0
2013-11-27;4;0
2013-11-26;4;0
2013-11-25;1;0
2013-11-23;1;0
2013-11-22;2;0
2013-11-19;2;0
2013-11-18;1;0
2013-11-13;1;0
2013-08-30;1;0
2013-08-29;2;0
2013-08-28;6;0
2013-08-27;1;0
2013-08-26;4;0
2013-08-24;2;0
2013-08-23;2;0
2013-08-22;1;0
2013-08-21;4;0
2013-08-20;2;0
2013-08-19;2;0
2013-08-17;3;0
2013-08-16;2;0
2013-08-15;2;0
2013-08-12;1;0
2013-08-09;1;0
2013-08-08;1;0
2013-08-06;2;0
2013-08-05;2;0
2013-08-02;1;0
2013-08-01;2;0
2013-07-31;2;0
2013-07-27;1;0
2013-07-25;1;0
2013-07-23;1;0
2013-07-20;1;0
2013-07-19;1;0
2013-07-17;2;0
2013-07-16;2;0
2013-07-13;2;0
2013-07-11;3;0
2013-07-10;1;0
2013-07-09;1;0
2013-07-08;2;0
2013-07-04;1;0
2013-07-03;2;0
2013-07-01;1;0
2013-06-29;1;0
2013-06-28;1;0
2013-06-26;3;0
2013-06-24;2;0
2013-06-22;1;0
2013-06-19;1;0
2013-06-18;2;0
2013-06-17;4;0
2013-06-15;2;0
2013-06-14;4;0
2013-06-13;9;0
2013-06-12;6;0
2013-06-11;10;0
2013-06-10;6;0
2013-06-08;9;0
2013-06-07;2;0
2013-06-06;13;0
2013-06-05;11;0
2013-06-04;7;0
2013-06-03;5;0
2013-06-01;4;0
2013-05-31;7;0
2013-05-30;8;0
2013-05-29;2;0
2013-05-28;6;0
2013-05-27;10;0
2013-05-25;4;0
2013-05-24;7;0
2013-05-23;2;0
2013-05-22;5;0
2013-05-21;4;0
2013-05-20;3;0
2013-05-18;1;0
2013-05-17;1;0
2013-05-16;3;0
2013-05-15;2;0
2013-05-14;5;0
2013-05-13;5;0
2013-05-11;10;0
2013-05-10;8;0
2013-05-09;6;0
2013-05-08;9;0
2013-05-07;10;0
2013-05-06;10;0
2013-05-04;6;0
2013-05-03;6;0
2013-05-02;5;0
2013-05-01;7;0
2013-04-30;9;0
2013-04-29;8;0
2013-04-27;2;0
2013-04-26;3;0
2013-04-25;5;0
2013-04-24;8;0
2013-04-23;9;0
2013-04-22;10;0
2013-04-20;8;0
2013-04-19;5;0
2013-04-18;7;0
2013-04-17;14;0
2013-04-16;3;0
2013-04-15;14;0
2013-04-13;12;0
2013-04-12;6;0
2013-04-11;11;0
2013-04-10;1;0
2013-04-09;2;0
2013-04-08;2;0
2013-04-06;3;0
2013-04-05;3;0
2013-04-04;7;0
2013-04-03;3;0
2013-04-02;2;0
2013-04-01;3;0
2013-03-30;6;0
2013-03-29;8;0
2013-03-28;6;0
2013-03-27;3;0
2013-03-26;2;0
2013-03-25;1;0
2013-03-23;1;0
2013-03-22;1;0
2013-03-21;2;0
2013-03-20;4;0
2013-03-19;9;0
2013-03-18;9;0
2013-03-16;7;0
2013-03-15;5;0
2013-03-14;13;0
2013-03-13;12;0
2013-03-12;16;0
2013-03-11;18;0
2013-03-09;26;0
2013-03-08;5;0
2013-03-07;15;0
2013-03-06;15;0
2013-03-05;13;0
2013-03-02;21;0
2013-03-01;14;0
2013-02-28;17;0
2013-02-27;24;0
2013-02-26;21;0
2013-02-25;19;0
2013-02-23;21;0
2013-02-22;22;0
2013-02-21;27;0
2013-02-20;26;0
2013-02-19;36;0
2013-02-18;21;0
2013-02-16;28;0
2013-02-15;40;0
2013-02-14;19;0
2013-02-13;31;0
2013-02-12;37;0
2013-02-11;30;0
2013-02-09;37;0
2013-02-08;40;0
2013-02-07;24;0
2013-02-06;14;0
2013-02-05;13;0
2013-02-04;22;0
2013-02-03;23;0
2013-02-02;17;0
2013-02-01;5;0
2013-01-31;5;0
2013-01-30;2;0
2013-01-28;4;0
2013-01-26;3;0
2013-01-25;2;0
2013-01-24;3;0
2013-01-23;2;0
2013-01-21;3;0
2013-01-20;4;0
2013-01-19;3;0
2013-01-18;1;0
2013-01-17;2;0
2013-01-16;2;0
2013-01-15;2;0
2013-01-14;4;0
2013-01-13;8;0
2013-01-12;4;0
2013-01-10;1;0
2013-01-09;10;0
2013-01-08;7;0
2013-01-06;5;0
2013-01-05;5;0
2013-01-04;2;0
2013-01-03;4;0
2013-01-02;1;0
2013-01-01;2;0
2012-12-31;1;0
2012-12-30;1;0
2012-12-29;1;0
2012-12-27;2;0
2012-12-24;3;0
2012-12-23;10;0
2012-12-02;4;0
2012-12-01;1;0
2012-11-30;4;0
2012-11-29;1;0
2012-11-28;2;0
2012-11-25;1;0
2012-11-24;1;0
2012-11-20;2;0
2012-11-19;1;0
2012-11-18;1;0
2012-11-16;1;0
2012-11-15;2;0
2012-11-14;3;0
2012-11-13;6;0
2012-11-12;7;0
2012-11-11;19;0
2012-11-10;7;0
2012-11-09;4;0
2012-11-08;2;0
2012-11-07;2;0
2012-11-06;4;0
2012-11-05;3;0
2012-11-04;4;0
2012-11-03;1;0
2012-11-02;3;0
2012-11-01;6;0
2012-10-31;4;0
2012-10-30;6;0
2012-10-29;5;0
2012-10-26;4;0
2012-10-25;3;0
2012-10-24;4;0
2012-10-23;2;0
2012-10-22;1;0
2012-10-21;3;0
2012-10-20;2;0
2012-10-16;1;0
2012-10-15;1;0
2012-10-09;1;0
2012-10-08;11;0
2012-10-07;9;0
2012-10-06;3;0
2012-10-03;12;0
2012-10-02;10;0
2012-10-01;1;0
2012-02-02;1;0
2012-01-22;1;0
2012-01-19;2;0
2012-01-02;2;0
2011-12-25;1;0
2011-12-24;1;0
2011-12-19;2;0
2011-12-02;1;0
2011-11-30;36;0
2011-11-29;2;0
2011-11-28;14;0
2011-11-27;1;0
2011-11-26;7;0
2011-11-25;5;0
2011-11-24;26;0
2011-11-23;16;0
2011-11-22;12;0
2011-11-21;10;0
2011-11-20;9;0
2011-11-19;8;0
2011-11-18;3;0
2011-11-16;4;0
2011-11-15;1;0
2011-11-14;2;0
2011-10-05;9;0
2011-10-04;1;0
2011-10-03;11;0
2011-10-02;4;0
2011-10-01;2;0
2011-09-19;6;0
2011-09-18;5;0
2011-09-17;1;0
